Weather History for KOVL - May, 2013

Change the Weather History Date:

Monday, May 20, 2013

  Actual Average (KRWF) Record (KRWF)
Temperature  
Mean Temperature 64 °F -  
Max Temperature 69 °F 75 °F 100 °F (1934)
Min Temperature 59 °F 49 °F 32 °F (1967)
Degree Days  
Heating Degree Days 1    
Growing Degree Days 14 (Base 50)    
Moisture  
Dew Point 56 °F    
Average Humidity 77    
Maximum Humidity 94    
Minimum Humidity 56    
Precipitation  
Precipitation 0.03 in - - ()
Sea Level Pressure  
Sea Level Pressure 29.50 in    
Wind  
Wind Speed 6 mph (SSW)    
Max Wind Speed 23 mph    
Max Gust Speed 28 mph    
Visibility 9 miles    
Events Rain , Thunderstorm    
Averages and records for this station are not official NWS values.
T = Trace of Precipitation, MM = Missing Value Source: NWS Daily Summary

Daily Weather History Graph

Daily Weather History Graph

Search for Another Location

Airport or City:

Trip Planner

Search our weather history database for the weather conditions in past years. The results will help you decide how hot, cold, wet, or windy it might be!

Date:

Astronomy

May. 20, 2013 Rise Set
Actual Time 5:46 AM CDT 8:47 PM CDT
Civil Twilight 5:11 AM CDT 9:22 PM CDT
Nautical Twilight 4:27 AM CDT 10:07 PM CDT
Astronomical Twilight 3:34 AM CDT 11:00 PM CDT
Moon 3:44 PM CDT (5/20) 2:54 AM CDT (5/20)
Length of Visible Light 16h 10m
Length of Day
15h 01m
Waxing Gibbous, 75% of the Moon is Illuminated
May 20
Waxing Gibbous
May 24
Full
May 31
Last Quarter
Jun 8
New
Jun 16
First Quarter

Hourly Weather History & Observations

Time (CDT) Temp. Dew Point Humidity Pressure Visibility Wind Dir Wind Speed Gust Speed Precip Events Conditions
12:14 AM 62.6 °F 59.0 °F 88% 29.56 in 7.0 mi Calm Calm - N/A   Clear
12:33 AM 60.8 °F 59.0 °F 94% 29.55 in 7.0 mi Calm Calm - N/A   Scattered Clouds
12:54 AM 60.8 °F 59.0 °F 94% 29.54 in 7.0 mi Calm Calm - N/A   Clear
1:14 AM 60.8 °F 59.0 °F 94% 29.52 in 7.0 mi Calm Calm - N/A   Clear
1:34 AM 60.8 °F 59.0 °F 94% 29.50 in 7.0 mi Calm Calm - N/A   Clear
1:54 AM 60.8 °F 59.0 °F 94% 29.50 in 7.0 mi Calm Calm - N/A   Scattered Clouds
2:14 AM 60.8 °F 59.0 °F 94% 29.50 in 7.0 mi Calm Calm - N/A   Mostly Cloudy
2:33 AM 62.6 °F 59.0 °F 88% 29.49 in 7.0 mi Calm Calm - N/A   Overcast
3:14 AM 62.6 °F 59.0 °F 88% 29.49 in 10.0 mi SSE 11.5 mph - N/A   Mostly Cloudy
3:34 AM 62.6 °F 59.0 °F 88% 29.47 in 10.0 mi Calm Calm - N/A   Scattered Clouds
3:54 AM 62.6 °F 59.0 °F 88% 29.47 in 10.0 mi Calm Calm - N/A Rain Light Rain
4:14 AM 62.6 °F 59.0 °F 88% 29.48 in 7.0 mi Calm Calm - N/A Rain Light Rain
4:34 AM 60.8 °F 59.0 °F 94% 29.47 in 7.0 mi SE 4.6 mph - 0.01 in Rain Rain
4:53 AM 60.8 °F 59.0 °F 94% 29.48 in 10.0 mi Calm Calm - 0.02 in   Light Drizzle
5:14 AM 60.8 °F 59.0 °F 94% 29.48 in 7.0 mi SSE 5.8 mph - N/A Rain Rain
5:34 AM 60.8 °F 57.2 °F 88% 29.48 in 7.0 mi South 4.6 mph - 0.01 in Rain Rain
5:54 AM 60.8 °F 57.2 °F 88% 29.48 in 7.0 mi SSE 8.1 mph - 0.01 in   Overcast
6:14 AM 60.8 °F 59.0 °F 94% 29.48 in 7.0 mi Calm Calm - N/A Rain Light Rain
6:34 AM 60.8 °F 59.0 °F 94% 29.47 in 7.0 mi Calm Calm - N/A   Overcast
7:14 AM 60.8 °F 59.0 °F 94% 29.48 in 7.0 mi SSE 10.4 mph 17.3 mph N/A Rain Light Rain
7:33 AM 60.8 °F 59.0 °F 94% 29.49 in 7.0 mi South 6.9 mph 16.1 mph N/A   Overcast
7:54 AM 60.8 °F 57.2 °F 88% 29.48 in 7.0 mi SSE 3.5 mph - N/A   Overcast
8:14 AM 62.6 °F 59.0 °F 88% 29.48 in 10.0 mi South 9.2 mph - N/A   Overcast
8:34 AM 62.6 °F 57.2 °F 82% 29.48 in 10.0 mi South 11.5 mph - N/A   Overcast
8:53 AM 62.6 °F 55.4 °F 77% 29.49 in 10.0 mi South 15.0 mph - N/A   Mostly Cloudy
9:14 AM 62.6 °F 55.4 °F 77% 29.49 in 10.0 mi South 17.3 mph 23.0 mph N/A   Mostly Cloudy
9:34 AM 64.4 °F 55.4 °F 73% 29.49 in 10.0 mi South 15.0 mph 20.7 mph N/A   Overcast
9:54 AM 64.4 °F 57.2 °F 77% 29.48 in 10.0 mi South 16.1 mph 20.7 mph N/A   Mostly Cloudy
10:33 AM 68.0 °F 59.0 °F 73% 29.48 in 10.0 mi SSW 12.7 mph 18.4 mph N/A   Overcast
10:54 AM 68.0 °F 59.0 °F 73% 29.48 in 10.0 mi South 12.7 mph 20.7 mph N/A   Overcast
11:14 AM 68.0 °F 59.0 °F 73% 29.48 in 10.0 mi South 13.8 mph 19.6 mph N/A   Overcast
11:34 AM 68.0 °F 59.0 °F 73% 29.48 in 10.0 mi SSW 21.9 mph - N/A   Overcast
11:54 AM 64.4 °F 57.2 °F 77% 29.49 in 10.0 mi SSW 19.6 mph 25.3 mph N/A   Overcast
12:14 PM 66.2 °F 59.0 °F 78% 29.49 in 10.0 mi SSW 17.3 mph 25.3 mph N/A   Overcast
12:34 PM 68.0 °F 59.0 °F 73% 29.49 in 10.0 mi SSW 21.9 mph 25.3 mph N/A Thunderstorm Overcast
12:54 PM 64.4 °F 57.2 °F 77% 29.50 in 10.0 mi SSW 12.7 mph 19.6 mph N/A   Overcast
1:13 PM 68.0 °F 59.0 °F 73% 29.50 in 10.0 mi SSW 15.0 mph 18.4 mph N/A   Overcast
1:53 PM 68.0 °F 57.2 °F 68% 29.50 in 10.0 mi SW 23.0 mph 26.5 mph N/A   Overcast
2:14 PM 64.4 °F 55.4 °F 73% 29.51 in 10.0 mi SW 16.1 mph - N/A   Overcast
2:34 PM 68.0 °F 55.4 °F 64% 29.51 in 10.0 mi SSW 16.1 mph - N/A   Overcast
2:54 PM 68.0 °F 55.4 °F 64% 29.51 in 10.0 mi South 11.5 mph - N/A   Overcast
3:13 PM 68.0 °F 53.6 °F 60% 29.51 in 10.0 mi South 10.4 mph - N/A   Overcast
3:34 PM 69.8 °F 55.4 °F 60% 29.50 in 10.0 mi South 9.2 mph - N/A   Overcast
3:53 PM 69.8 °F 53.6 °F 56% 29.50 in 10.0 mi South 17.3 mph 24.2 mph N/A   Mostly Cloudy
4:14 PM 69.8 °F 53.6 °F 56% 29.51 in 10.0 mi SSW 20.7 mph 27.6 mph N/A   Overcast
4:34 PM 69.8 °F 53.6 °F 56% 29.50 in 10.0 mi SW 17.3 mph - N/A   Overcast
4:53 PM 68.0 °F 53.6 °F 60% 29.51 in 10.0 mi SW 11.5 mph - N/A   Overcast
5:14 PM 68.0 °F 55.4 °F 64% 29.51 in 10.0 mi SSW 12.7 mph 18.4 mph N/A   Overcast
5:33 PM 69.8 °F 53.6 °F 56% 29.51 in 10.0 mi SSW 18.4 mph 24.2 mph N/A   Overcast
5:54 PM 69.8 °F 55.4 °F 60% 29.52 in 10.0 mi SSW 16.1 mph - N/A   Overcast
6:13 PM 69.8 °F 53.6 °F 56% 29.51 in 10.0 mi SW 11.5 mph - N/A   Mostly Cloudy
6:34 PM 68.0 °F 53.6 °F 60% 29.51 in 10.0 mi South 13.8 mph 18.4 mph N/A   Mostly Cloudy
6:54 PM 68.0 °F 51.8 °F 56% 29.51 in 10.0 mi SSW 12.7 mph 20.7 mph N/A   Mostly Cloudy
7:13 PM 68.0 °F 51.8 °F 56% 29.51 in 10.0 mi South 8.1 mph - N/A   Mostly Cloudy
7:34 PM 66.2 °F 53.6 °F 64% 29.51 in 10.0 mi Calm Calm - N/A   Overcast
7:54 PM 64.4 °F 51.8 °F 64% 29.51 in 10.0 mi Calm Calm - N/A   Overcast
8:13 PM 64.4 °F 51.8 °F 64% 29.51 in 10.0 mi Calm Calm - N/A   Overcast
8:34 PM 62.6 °F 53.6 °F 72% 29.51 in 10.0 mi SSE 12.7 mph - N/A   Overcast
9:13 PM 60.8 °F 53.6 °F 77% 29.51 in 10.0 mi Calm Calm - N/A   Overcast
9:34 PM 60.8 °F 53.6 °F 77% 29.51 in 10.0 mi Calm Calm - N/A   Overcast
9:54 PM 59.0 °F 53.6 °F 82% 29.52 in 10.0 mi Calm Calm - N/A   Overcast
10:14 PM 60.8 °F 53.6 °F 77% 29.52 in 10.0 mi Calm Calm - N/A   Overcast
10:34 PM 60.8 °F 53.6 °F 77% 29.51 in 10.0 mi Calm Calm - N/A   Overcast
10:53 PM 60.8 °F 53.6 °F 77% 29.50 in 10.0 mi Calm Calm - N/A   Overcast
11:14 PM 60.8 °F 53.6 °F 77% 29.50 in 10.0 mi Calm Calm - N/A   Overcast
11:34 PM 59.0 °F 53.6 °F 82% 29.50 in 10.0 mi Calm Calm - N/A   Overcast
11:53 PM 59.0 °F 53.6 °F 82% 29.50 in 10.0 mi Calm Calm - N/A   Overcast